shijiazhuang , China , ASIA

  • Wednesday
    April 25

      Overcast

      55 °F

      North

       

  • Thursday
    April 26

    Sunny  Sunny

    81 °F  57 °F

    South  North

    3~4L    

  • Friday
    April 27

    Sunny  Sunny

    75 °F  55 °F

    North  North

    3~4L    

  • Saturday
    April 28

    Sunny  Cloudy

    84 °F  63 °F

    South  North

    3~4L    

  • Sunday
    April 29

    Cloudy  Cloudy

    86 °F  59 °F

    South  North

    3~4L    

  • Monday
    April 30

    Cloudy  Overcast

    77 °F  59 °F

    South  North

    3~4L    

  • Tuesday
    May 1

    Overcast  Overcast

    73 °F  57 °F

    North  North

    3~4L    

Date   Weather Temperature Humidity Total_rain Visibility Wind
23:00 Overcast 61°F 75.1% 0mm 4km Southwest  1.1m/s
02:00 Overcast 56°F 79.8% 0mm 0.8km Southwest  1.8m/s
05:00 Overcast 56°F 84.8% 0mm 4km Southwest  2.0m/s
08:00 Overcast 64°F 71.8% 0mm 0.8km Southwest  2.7m/s
11:00 Sunny 76°F 54.3% 0mm 4km Northwest  3.6m/s
14:00 Sunny 80°F 50.9% 0mm 8km Northwest  2.9m/s
17:00 Sunny 78°F 54.4% 0mm 12km Northeast  4.9m/s
20:00 Sunny 71°F 48.3% 0mm 8km Southeast  1.4m/s
23:00 Sunny 67°F 58.7% 0mm 12km Northeast  2.4m/s
02:00 Sunny 60°F 77.8% 0mm 8km Northeast  3.2m/s
05:00 Sunny 58°F 79.4% 0mm 4km Northwest  1.8m/s
08:00 Sunny 62°F 67.8% 0mm 4km Northeast  1.3m/s
11:00 Sunny 75°F 56.4% 0mm 12km Southeast  1.8m/s
14:00 Sunny 75°F 55.3% 0mm 12km Southeast  3.2m/s
17:00 Sunny 72°F 59.9% 0mm 12km Southeast  4.5m/s
20:00 Sunny 69°F 49.4% 0mm 12km Southeast  1.5m/s
23:00 Sunny 61°F 78.8% 0mm 4km Southwest  0.7m/s
02:00 Sunny 56°F 82.8% 0mm 4km Southwest  1.3m/s
05:00 Sunny 57°F 81.3% 0mm 4km Southwest  2.2m/s
08:00 Sunny 65°F 74.5% 0mm 4km Southwest  2.7m/s
11:00 Sunny 72°F 65.5% 0mm 4km Southwest  2.4m/s
14:00 Sunny 84°F 64.1% 0mm 8km Southwest  3.2m/s
17:00 Sunny 84°F 66.4% 0mm 4km Southeast  4.2m/s
20:00 Sunny 74°F 61.9% 0mm 8km Southeast  3.6m/s
23:00 Cloudy 66°F 78.8% 0mm 12km Southwest  3.9m/s
02:00 Cloudy 65°F 81.9% 0mm 4km Southwest  4.0m/s
05:00 Cloudy 63°F 86.7% 0mm 4km Southwest  3.8m/s
08:00 Cloudy 67°F 86.6% 0mm 4km Southwest  3.8m/s
11:00 Cloudy 86°F 72.9% 0mm 4km Northwest  2.3m/s
14:00 Cloudy 83°F 68.4% 0mm 8km Southeast  0.9m/s
17:00 Cloudy 80°F 73% 0mm 8km Southeast  4.5m/s
20:00 Cloudy 77°F 67.1% 0mm 8km Southeast  3.1m/s
23:00 Cloudy 70°F 76.3% 0mm 4km Northeast  7.6m/s
02:00 Cloudy 59°F 86.1% 0mm 4km Northeast  5.7m/s
05:00 Cloudy 64°F 91.2% 0mm 4km Northeast  2.3m/s
08:00 Cloudy 71°F 90.1% 0mm 4km Northeast  2.4m/s
11:00 Cloudy 72°F 80.4% 0mm 4km Northeast  2.4m/s
14:00 Cloudy 73°F 75.9% 0mm 4km Northeast  3.1m/s
17:00 Cloudy 77°F 77.1% 0mm 0.4km Southeast  3.3m/s
20:00 Cloudy 61°F 70.5% 0mm 8km Southeast  1.5m/s
23:00 Overcast 63°F 84.4% 0mm 4km Northwest  0.9m/s
02:00 Overcast 61°F 88.8% 0mm 4km Southwest  1.7m/s
05:00 Overcast 59°F 85.4% 0mm 4km Northwest  1.5m/s
08:00 Overcast 62°F 77.9% 0mm 4km Northeast  2.5m/s
11:00 Overcast 70°F 64.8% 0mm 4km Northwest  3.9m/s
14:00 Overcast 73°F 57.3% 0mm 4km Northwest  7.0m/s
17:00 Overcast 72°F 60.3% 0mm 4km Northwest  6.7m/s
20:00 Overcast 71°F 56% 0mm 12km Northwest  4.5m/s
23:00 Overcast 64°F 68.3% 0mm 4km Northwest  2.4m/s
02:00 Overcast 58°F 68.3% 0mm 4km Southwest  1.0m/s
05:00 Overcast 60°F 71.9% 0mm 12km Southwest  2.5m/s